Year,Month,Day,Hour,Minute,Value (Times are PST for temperature in C)
2018,09,28,00,00,12.60
2018,09,28,00,01,12.50
2018,09,28,00,02,12.50
2018,09,28,00,03,12.50
2018,09,28,00,04,12.40
2018,09,28,00,05,12.40
2018,09,28,00,06,12.40
2018,09,28,00,07,12.40
2018,09,28,00,08,12.40
2018,09,28,00,09,12.40
2018,09,28,00,10,12.40
2018,09,28,00,11,12.30
2018,09,28,00,12,12.30
2018,09,28,00,13,12.30
2018,09,28,00,14,12.30
2018,09,28,00,15,12.40
2018,09,28,00,16,12.40
2018,09,28,00,17,12.40
2018,09,28,00,18,12.30
2018,09,28,00,19,12.30
2018,09,28,00,20,12.30
2018,09,28,00,21,12.30
2018,09,28,00,22,12.30
2018,09,28,00,23,12.30
2018,09,28,00,24,12.30
2018,09,28,00,25,12.30
2018,09,28,00,26,12.30
2018,09,28,00,27,12.30
2018,09,28,00,28,12.30
2018,09,28,00,29,12.30
2018,09,28,00,30,12.30
2018,09,28,00,31,12.30
2018,09,28,00,32,12.30
2018,09,28,00,33,12.30
2018,09,28,00,34,12.30
2018,09,28,00,35,12.20
2018,09,28,00,36,12.20
2018,09,28,00,37,12.10
2018,09,28,00,38,12.10
2018,09,28,00,39,12.10
2018,09,28,00,40,12.10
2018,09,28,00,41,12.10
2018,09,28,00,42,12.10
2018,09,28,00,43,12.10
2018,09,28,00,44,12.00
2018,09,28,00,45,12.00
2018,09,28,00,46,12.00
2018,09,28,00,47,12.00
2018,09,28,00,48,12.00
2018,09,28,00,49,12.00
2018,09,28,00,50,12.00
2018,09,28,00,51,12.10
2018,09,28,00,52,12.00
2018,09,28,00,53,12.00
2018,09,28,00,54,12.00
2018,09,28,00,55,12.00
2018,09,28,00,56,12.00
2018,09,28,00,57,12.10
2018,09,28,00,58,12.10
2018,09,28,00,59,12.10
2018,09,28,01,00,12.10
2018,09,28,01,01,12.10
2018,09,28,01,02,12.10
2018,09,28,01,03,12.10
2018,09,28,01,04,12.10
2018,09,28,01,05,12.00
2018,09,28,01,06,12.00
2018,09,28,01,07,11.90
2018,09,28,01,08,11.90
2018,09,28,01,09,11.90
2018,09,28,01,10,11.90
2018,09,28,01,11,11.90
2018,09,28,01,12,11.90
2018,09,28,01,13,11.90
2018,09,28,01,14,12.00
2018,09,28,01,15,12.00
2018,09,28,01,16,12.10
2018,09,28,01,17,12.10
2018,09,28,01,18,12.10
2018,09,28,01,19,12.00
2018,09,28,01,20,12.00
2018,09,28,01,21,11.90
2018,09,28,01,22,11.90
2018,09,28,01,23,11.80
2018,09,28,01,24,11.80
2018,09,28,01,25,11.80
2018,09,28,01,26,11.80
2018,09,28,01,27,11.80
2018,09,28,01,28,11.80
2018,09,28,01,29,11.80
2018,09,28,01,30,11.80
2018,09,28,01,31,11.80
2018,09,28,01,32,11.80
2018,09,28,01,33,11.80
2018,09,28,01,34,11.80
2018,09,28,01,35,11.80
2018,09,28,01,36,11.80
2018,09,28,01,37,11.70
2018,09,28,01,38,11.70
2018,09,28,01,39,11.70
2018,09,28,01,40,11.60
2018,09,28,01,41,11.60
2018,09,28,01,42,11.50
2018,09,28,01,43,11.50
2018,09,28,01,44,11.50
2018,09,28,01,45,11.60
2018,09,28,01,46,11.60
2018,09,28,01,47,11.60
2018,09,28,01,48,11.60
2018,09,28,01,49,11.60
2018,09,28,01,50,11.60
2018,09,28,01,51,11.60
2018,09,28,01,52,11.60
2018,09,28,01,53,11.60
2018,09,28,01,54,11.60
2018,09,28,01,55,11.60
2018,09,28,01,56,11.50
2018,09,28,01,57,11.50
2018,09,28,01,58,11.40
2018,09,28,01,59,11.40
2018,09,28,02,00,11.40
2018,09,28,02,01,11.40
2018,09,28,02,02,11.40
2018,09,28,02,03,11.50
2018,09,28,02,04,11.50
2018,09,28,02,05,11.50
2018,09,28,02,06,11.50
2018,09,28,02,07,11.50
2018,09,28,02,08,11.50
2018,09,28,02,09,11.60
2018,09,28,02,10,11.50
2018,09,28,02,11,11.50
2018,09,28,02,12,11.40
2018,09,28,02,13,11.40
2018,09,28,02,14,11.40
2018,09,28,02,15,11.40
2018,09,28,02,16,11.40
2018,09,28,02,17,11.50
2018,09,28,02,18,11.40
2018,09,28,02,19,11.50
2018,09,28,02,20,11.50
2018,09,28,02,21,11.50
2018,09,28,02,22,11.50
2018,09,28,02,23,11.50
2018,09,28,02,24,11.60
2018,09,28,02,25,11.50
2018,09,28,02,26,11.50
2018,09,28,02,27,11.50
2018,09,28,02,28,11.40
2018,09,28,02,29,11.40
2018,09,28,02,30,11.40
2018,09,28,02,31,11.40
2018,09,28,02,32,11.40
2018,09,28,02,33,11.40
2018,09,28,02,34,11.30
2018,09,28,02,35,11.30
2018,09,28,02,36,11.30
2018,09,28,02,37,11.20
2018,09,28,02,38,11.20
2018,09,28,02,39,11.20
2018,09,28,02,40,11.20
2018,09,28,02,41,11.20
2018,09,28,02,42,11.20
2018,09,28,02,43,11.20
2018,09,28,02,44,11.20
2018,09,28,02,45,11.30
2018,09,28,02,46,11.30
2018,09,28,02,47,11.30
2018,09,28,02,48,11.40
2018,09,28,02,49,11.40
2018,09,28,02,50,11.30
2018,09,28,02,51,11.30
2018,09,28,02,52,11.30
2018,09,28,02,53,11.20
2018,09,28,02,54,11.20
2018,09,28,02,55,11.20
2018,09,28,02,56,11.20
2018,09,28,02,57,11.20
2018,09,28,02,58,11.20
2018,09,28,02,59,11.20
2018,09,28,03,00,11.10
2018,09,28,03,01,11.10
2018,09,28,03,02,11.00
2018,09,28,03,03,11.00
2018,09,28,03,04,11.00
2018,09,28,03,05,10.90
2018,09,28,03,06,10.90
2018,09,28,03,07,10.90
2018,09,28,03,08,10.90
2018,09,28,03,09,10.90
2018,09,28,03,10,10.80
2018,09,28,03,11,10.80
2018,09,28,03,12,10.80
2018,09,28,03,13,10.80
2018,09,28,03,14,10.80
2018,09,28,03,15,10.80
2018,09,28,03,16,10.80
2018,09,28,03,17,10.80
2018,09,28,03,18,10.80
2018,09,28,03,19,10.80
2018,09,28,03,20,10.70
2018,09,28,03,21,10.70
2018,09,28,03,22,10.70
2018,09,28,03,23,10.70
2018,09,28,03,24,10.80
2018,09,28,03,25,10.80
2018,09,28,03,26,10.80
2018,09,28,03,27,10.80
2018,09,28,03,28,10.90
2018,09,28,03,29,10.90
2018,09,28,03,30,10.90
2018,09,28,03,31,10.90
2018,09,28,03,32,10.90
2018,09,28,03,33,10.90
2018,09,28,03,34,10.90
2018,09,28,03,35,10.90
2018,09,28,03,36,10.90
2018,09,28,03,37,10.90
2018,09,28,03,38,10.90
2018,09,28,03,39,10.90
2018,09,28,03,40,10.90
2018,09,28,03,41,10.90
2018,09,28,03,42,10.90
2018,09,28,03,43,11.00
2018,09,28,03,44,11.00
2018,09,28,03,45,11.00
2018,09,28,03,46,11.00
2018,09,28,03,47,10.90
2018,09,28,03,48,10.90
2018,09,28,03,49,10.90
2018,09,28,03,50,10.90
2018,09,28,03,51,10.80
2018,09,28,03,52,10.80
2018,09,28,03,53,10.70
2018,09,28,03,54,10.70
2018,09,28,03,55,10.70
2018,09,28,03,56,10.80
2018,09,28,03,57,10.90
2018,09,28,03,58,11.00
2018,09,28,03,59,11.00
2018,09,28,04,00,11.10
2018,09,28,04,01,11.00
2018,09,28,04,02,11.00
2018,09,28,04,03,10.90
2018,09,28,04,04,10.90
2018,09,28,04,05,10.90
2018,09,28,04,06,10.90
2018,09,28,04,07,10.90
2018,09,28,04,08,10.80
2018,09,28,04,09,10.80
2018,09,28,04,10,10.80
2018,09,28,04,11,10.80
2018,09,28,04,12,10.80
2018,09,28,04,13,10.80
2018,09,28,04,14,10.80
2018,09,28,04,15,10.80
2018,09,28,04,16,10.80
2018,09,28,04,17,10.80
2018,09,28,04,18,10.80
2018,09,28,04,19,10.80
2018,09,28,04,20,10.80
2018,09,28,04,21,10.80
2018,09,28,04,22,10.80
2018,09,28,04,23,10.80
2018,09,28,04,24,10.80
2018,09,28,04,25,10.80
2018,09,28,04,26,10.80
2018,09,28,04,27,10.70
2018,09,28,04,28,10.70
2018,09,28,04,29,10.70
2018,09,28,04,30,10.70
2018,09,28,04,31,10.70
2018,09,28,04,32,10.60
2018,09,28,04,33,10.60
2018,09,28,04,34,10.60
2018,09,28,04,35,10.70
2018,09,28,04,36,10.70
2018,09,28,04,37,10.70
2018,09,28,04,38,10.70
2018,09,28,04,39,10.80
2018,09,28,04,40,10.80
2018,09,28,04,41,10.80
2018,09,28,04,42,10.80
2018,09,28,04,43,10.80
2018,09,28,04,44,10.80
2018,09,28,04,45,10.70
2018,09,28,04,46,10.70
2018,09,28,04,47,10.70
2018,09,28,04,48,10.80
2018,09,28,04,49,10.80
2018,09,28,04,50,10.80
2018,09,28,04,51,10.80
2018,09,28,04,52,10.80
2018,09,28,04,53,10.80
2018,09,28,04,54,10.80
2018,09,28,04,55,10.80
2018,09,28,04,56,10.70
2018,09,28,04,57,10.80
2018,09,28,04,58,10.80
2018,09,28,04,59,10.80
2018,09,28,05,00,10.80
2018,09,28,05,01,10.80
2018,09,28,05,02,10.80
2018,09,28,05,03,10.80
2018,09,28,05,04,10.70
2018,09,28,05,05,10.70
2018,09,28,05,06,10.70
2018,09,28,05,07,10.70
2018,09,28,05,08,10.80
2018,09,28,05,09,10.80
2018,09,28,05,10,10.80
2018,09,28,05,11,10.80
2018,09,28,05,12,10.80
2018,09,28,05,13,10.80
2018,09,28,05,14,10.80
2018,09,28,05,15,10.80
2018,09,28,05,16,10.70
2018,09,28,05,17,10.70
2018,09,28,05,18,10.70
2018,09,28,05,19,10.60
2018,09,28,05,20,10.60
2018,09,28,05,21,10.60
2018,09,28,05,22,10.60
2018,09,28,05,23,10.60
2018,09,28,05,24,10.60
2018,09,28,05,25,10.50
2018,09,28,05,26,10.50
2018,09,28,05,27,10.40
2018,09,28,05,28,10.40
2018,09,28,05,29,10.40
2018,09,28,05,30,10.40
2018,09,28,05,31,10.30
2018,09,28,05,32,10.40
2018,09,28,05,33,10.40
2018,09,28,05,34,10.30
2018,09,28,05,35,10.30
2018,09,28,05,36,10.30
2018,09,28,05,37,10.30
2018,09,28,05,38,10.30
2018,09,28,05,39,10.30
2018,09,28,05,40,10.30
2018,09,28,05,41,10.30
2018,09,28,05,42,10.30
2018,09,28,05,43,10.30
2018,09,28,05,44,10.30
2018,09,28,05,45,10.30
2018,09,28,05,46,10.30
2018,09,28,05,47,10.30
2018,09,28,05,48,10.30
2018,09,28,05,49,10.30
2018,09,28,05,50,10.30
2018,09,28,05,51,10.30
2018,09,28,05,52,10.40
2018,09,28,05,53,10.40
2018,09,28,05,54,10.40
2018,09,28,05,55,10.50
2018,09,28,05,56,10.50
2018,09,28,05,57,10.50
2018,09,28,05,58,10.50
2018,09,28,05,59,10.50
2018,09,28,06,00,10.50
2018,09,28,06,01,10.50
2018,09,28,06,02,10.40
2018,09,28,06,03,10.50
2018,09,28,06,04,10.40
2018,09,28,06,05,10.40
2018,09,28,06,06,10.40
2018,09,28,06,07,10.40
2018,09,28,06,08,10.40
2018,09,28,06,09,10.40
2018,09,28,06,10,10.40
2018,09,28,06,11,10.40
2018,09,28,06,12,10.40
2018,09,28,06,13,10.40
2018,09,28,06,14,10.40
2018,09,28,06,15,10.40
2018,09,28,06,16,10.40
2018,09,28,06,17,10.40
2018,09,28,06,18,10.40
2018,09,28,06,19,10.50
2018,09,28,06,20,10.50
2018,09,28,06,21,10.60
2018,09,28,06,22,10.70
2018,09,28,06,23,10.70
2018,09,28,06,24,10.70
2018,09,28,06,25,10.60
2018,09,28,06,26,10.60
2018,09,28,06,27,10.60
2018,09,28,06,28,10.50
2018,09,28,06,29,10.40
2018,09,28,06,30,10.40
2018,09,28,06,31,10.30
2018,09,28,06,32,10.30
2018,09,28,06,33,10.30
2018,09,28,06,34,10.40
2018,09,28,06,35,10.40
2018,09,28,06,36,10.40
2018,09,28,06,37,10.40
2018,09,28,06,38,10.40
2018,09,28,06,39,10.30
2018,09,28,06,40,10.30
2018,09,28,06,41,10.30
2018,09,28,06,42,10.30
2018,09,28,06,43,10.20
2018,09,28,06,44,10.20
2018,09,28,06,45,10.20
2018,09,28,06,46,10.30
2018,09,28,06,47,10.30
2018,09,28,06,48,10.30
2018,09,28,06,49,10.30
2018,09,28,06,50,10.30
2018,09,28,06,51,10.30
2018,09,28,06,52,10.30
2018,09,28,06,53,10.30
2018,09,28,06,54,10.30
2018,09,28,06,55,10.30
2018,09,28,06,56,10.30
2018,09,28,06,57,10.30
2018,09,28,06,58,10.20
2018,09,28,06,59,10.20
2018,09,28,07,00,10.20
2018,09,28,07,01,10.20
2018,09,28,07,02,10.20
2018,09,28,07,03,10.20
2018,09,28,07,04,10.20
2018,09,28,07,05,10.20
2018,09,28,07,06,10.20
2018,09,28,07,07,10.20
2018,09,28,07,08,10.20
2018,09,28,07,09,10.10
2018,09,28,07,10,10.10
2018,09,28,07,11,10.10
2018,09,28,07,12,10.10
2018,09,28,07,13,10.20
2018,09,28,07,14,10.30
2018,09,28,07,15,10.30
2018,09,28,07,16,10.20
2018,09,28,07,17,10.20
2018,09,28,07,18,10.20
2018,09,28,07,19,10.20
2018,09,28,07,20,10.10
2018,09,28,07,21,10.10
2018,09,28,07,22,10.20
2018,09,28,07,23,10.20
2018,09,28,07,24,10.20
2018,09,28,07,25,10.20
2018,09,28,07,26,10.20
2018,09,28,07,27,10.20
2018,09,28,07,28,10.30
2018,09,28,07,29,10.30
2018,09,28,07,30,10.30
2018,09,28,07,31,10.40
2018,09,28,07,32,10.40
2018,09,28,07,33,10.30
2018,09,28,07,34,10.30
2018,09,28,07,35,10.30
2018,09,28,07,36,10.30
2018,09,28,07,37,10.30
2018,09,28,07,38,10.40
2018,09,28,07,39,10.40
2018,09,28,07,40,10.40
2018,09,28,07,41,10.50
2018,09,28,07,42,10.50
2018,09,28,07,43,10.60
2018,09,28,07,44,10.70
2018,09,28,07,45,10.60
2018,09,28,07,46,10.70
2018,09,28,07,47,10.70
2018,09,28,07,48,10.70
2018,09,28,07,49,10.60
2018,09,28,07,50,10.60
2018,09,28,07,51,10.60
2018,09,28,07,52,10.60
2018,09,28,07,53,10.70
2018,09,28,07,54,10.70
2018,09,28,07,55,10.60
2018,09,28,07,56,10.60
2018,09,28,07,57,10.60
2018,09,28,07,58,10.50
2018,09,28,07,59,10.40
2018,09,28,08,00,10.50
2018,09,28,08,01,10.60
2018,09,28,08,02,10.60
2018,09,28,08,03,10.70
2018,09,28,08,04,10.70
2018,09,28,08,05,10.70
2018,09,28,08,06,10.70
2018,09,28,08,07,10.70
2018,09,28,08,08,10.70
2018,09,28,08,09,10.70
2018,09,28,08,10,10.70
2018,09,28,08,11,10.70
2018,09,28,08,12,10.80
2018,09,28,08,13,10.80
2018,09,28,08,14,10.80
2018,09,28,08,15,10.80
2018,09,28,08,16,10.70
2018,09,28,08,17,10.60
2018,09,28,08,18,10.60
2018,09,28,08,19,10.50
2018,09,28,08,20,10.50
2018,09,28,08,21,10.60
2018,09,28,08,22,10.60
2018,09,28,08,23,10.60
2018,09,28,08,24,10.60
2018,09,28,08,25,10.60
2018,09,28,08,26,10.60
2018,09,28,08,27,10.60
2018,09,28,08,28,10.70
2018,09,28,08,29,10.70
2018,09,28,08,30,10.70
2018,09,28,08,31,10.80
2018,09,28,08,32,10.80
2018,09,28,08,33,10.90
2018,09,28,08,34,10.90
2018,09,28,08,35,11.00
2018,09,28,08,36,11.10
2018,09,28,08,37,11.10
2018,09,28,08,38,11.10
2018,09,28,08,39,11.20
2018,09,28,08,40,11.30
2018,09,28,08,41,11.40
2018,09,28,08,42,11.50
2018,09,28,08,43,11.70
2018,09,28,08,44,11.70
2018,09,28,08,45,11.80
2018,09,28,08,46,11.90
2018,09,28,08,47,11.90
2018,09,28,08,48,11.90
2018,09,28,08,49,11.90
2018,09,28,08,50,11.90
2018,09,28,08,51,11.90
2018,09,28,08,52,11.90
2018,09,28,08,53,11.90
2018,09,28,08,54,11.90
2018,09,28,08,55,12.00
2018,09,28,08,56,12.00
2018,09,28,08,57,12.10
2018,09,28,08,58,12.10
2018,09,28,08,59,12.10
2018,09,28,09,00,12.10
2018,09,28,09,01,12.10
2018,09,28,09,02,12.20
2018,09,28,09,03,12.30
2018,09,28,09,04,12.50
2018,09,28,09,05,12.60
2018,09,28,09,06,12.70
2018,09,28,09,07,12.80
2018,09,28,09,08,12.90
2018,09,28,09,09,13.00
2018,09,28,09,10,13.10
2018,09,28,09,11,13.20
2018,09,28,09,12,13.20
2018,09,28,09,13,13.30
2018,09,28,09,14,13.30
2018,09,28,09,15,13.30
2018,09,28,09,16,13.30
2018,09,28,09,17,13.40
2018,09,28,09,18,13.40
2018,09,28,09,19,13.50
2018,09,28,09,20,13.60
2018,09,28,09,21,13.70
2018,09,28,09,22,13.80
2018,09,28,09,23,13.90
2018,09,28,09,24,14.00
2018,09,28,09,25,14.10
2018,09,28,09,26,14.20
2018,09,28,09,27,14.30
2018,09,28,09,28,14.40
2018,09,28,09,29,14.50
2018,09,28,09,30,14.60
2018,09,28,09,31,14.60
2018,09,28,09,32,14.70
2018,09,28,09,33,14.80
2018,09,28,09,34,14.90
2018,09,28,09,35,15.00
2018,09,28,09,36,15.10
2018,09,28,09,37,15.10
2018,09,28,09,38,15.10
2018,09,28,09,39,15.10
2018,09,28,09,40,15.10
2018,09,28,09,41,15.10
2018,09,28,09,42,15.20
2018,09,28,09,43,15.30
2018,09,28,09,44,15.40
2018,09,28,09,45,15.50
2018,09,28,09,46,15.60
2018,09,28,09,47,15.60
2018,09,28,09,48,15.50
2018,09,28,09,49,15.50
2018,09,28,09,50,15.50
2018,09,28,09,51,15.50
2018,09,28,09,52,15.60
2018,09,28,09,53,15.60
2018,09,28,09,54,15.70
2018,09,28,09,55,15.70
2018,09,28,09,56,15.90
2018,09,28,09,57,16.00
2018,09,28,09,58,16.10
2018,09,28,09,59,16.20
2018,09,28,10,00,16.30
2018,09,28,10,01,16.40
2018,09,28,10,02,16.50
2018,09,28,10,03,16.60
2018,09,28,10,04,16.70
2018,09,28,10,05,16.70
2018,09,28,10,06,16.80
2018,09,28,10,07,16.80
2018,09,28,10,08,16.80
2018,09,28,10,09,16.80
2018,09,28,10,10,16.90
2018,09,28,10,11,16.90
2018,09,28,10,12,17.00
2018,09,28,10,13,17.10
2018,09,28,10,14,17.20
2018,09,28,10,15,17.40
2018,09,28,10,16,17.60
2018,09,28,10,17,17.70
2018,09,28,10,18,17.70
2018,09,28,10,19,17.70
2018,09,28,10,20,17.80
2018,09,28,10,21,17.80
2018,09,28,10,22,17.80
2018,09,28,10,23,17.90
2018,09,28,10,24,18.00
2018,09,28,10,25,18.10
2018,09,28,10,26,18.20
2018,09,28,10,27,18.40
2018,09,28,10,28,18.50
2018,09,28,10,29,18.60
2018,09,28,10,30,18.60
2018,09,28,10,31,18.70
2018,09,28,10,32,18.70
2018,09,28,10,33,18.70
2018,09,28,10,34,18.60
2018,09,28,10,35,18.60
2018,09,28,10,36,18.50
2018,09,28,10,37,18.50
2018,09,28,10,38,18.40
2018,09,28,10,39,18.40
2018,09,28,10,40,18.40
2018,09,28,10,41,18.40
2018,09,28,10,42,18.40
2018,09,28,10,43,18.50
2018,09,28,10,44,18.50
2018,09,28,10,45,18.60
2018,09,28,10,46,18.60
2018,09,28,10,47,18.70
2018,09,28,10,48,18.80
2018,09,28,10,49,18.90
2018,09,28,10,50,19.00
2018,09,28,10,51,19.10
2018,09,28,10,52,19.20
2018,09,28,10,53,19.30
2018,09,28,10,54,19.40
2018,09,28,10,55,19.40
2018,09,28,10,56,19.40
2018,09,28,10,57,19.40
2018,09,28,10,58,19.40
2018,09,28,10,59,19.50
2018,09,28,11,00,19.50
2018,09,28,11,01,19.60
2018,09,28,11,02,19.60
2018,09,28,11,03,19.70
2018,09,28,11,04,19.70
2018,09,28,11,05,19.70
2018,09,28,11,06,19.70
2018,09,28,11,07,19.70
2018,09,28,11,08,19.80
2018,09,28,11,09,19.80
2018,09,28,11,10,19.80
2018,09,28,11,11,19.90
2018,09,28,11,12,19.90
2018,09,28,11,13,20.00
2018,09,28,11,14,20.10
2018,09,28,11,15,20.20
2018,09,28,11,16,20.30
2018,09,28,11,17,20.50
2018,09,28,11,18,20.60
2018,09,28,11,19,20.70
2018,09,28,11,20,20.80
2018,09,28,11,21,20.80
2018,09,28,11,22,20.80
2018,09,28,11,23,20.80
2018,09,28,11,24,20.90
2018,09,28,11,25,20.90
2018,09,28,11,26,20.80
2018,09,28,11,27,20.80
2018,09,28,11,28,20.80
2018,09,28,11,29,20.70
2018,09,28,11,30,20.70
2018,09,28,11,31,20.80
2018,09,28,11,32,20.80
2018,09,28,11,33,20.80
2018,09,28,11,34,20.90
2018,09,28,11,35,20.90
2018,09,28,11,36,21.00
2018,09,28,11,37,21.10
2018,09,28,11,38,21.10
2018,09,28,11,39,21.10
2018,09,28,11,40,21.20
2018,09,28,11,41,21.20
2018,09,28,11,42,21.30
2018,09,28,11,43,21.30
2018,09,28,11,44,21.40
2018,09,28,11,45,21.50
2018,09,28,11,46,21.60
2018,09,28,11,47,21.70
2018,09,28,11,48,21.80
2018,09,28,11,49,21.90
2018,09,28,11,50,22.10
2018,09,28,11,51,22.20
2018,09,28,11,52,22.20
2018,09,28,11,53,22.20
2018,09,28,11,54,22.20
2018,09,28,11,55,22.30
2018,09,28,11,56,22.30
2018,09,28,11,57,22.30
2018,09,28,11,58,22.40
2018,09,28,11,59,22.40
2018,09,28,12,00,22.50
2018,09,28,12,01,22.50
2018,09,28,12,02,22.50
2018,09,28,12,03,22.50
2018,09,28,12,04,22.50
2018,09,28,12,05,22.50
2018,09,28,12,06,22.50
2018,09,28,12,07,22.50
2018,09,28,12,08,22.60
2018,09,28,12,09,22.50
2018,09,28,12,10,22.50
2018,09,28,12,11,22.50
2018,09,28,12,12,22.40
2018,09,28,12,13,22.40
2018,09,28,12,14,22.40
2018,09,28,12,15,22.40
2018,09,28,12,16,22.30
2018,09,28,12,17,22.30
2018,09,28,12,18,22.30
2018,09,28,12,19,22.30
2018,09,28,12,20,22.30
2018,09,28,12,21,22.30
2018,09,28,12,22,22.30
2018,09,28,12,23,22.30
2018,09,28,12,24,22.40
2018,09,28,12,25,22.40
2018,09,28,12,26,22.40
2018,09,28,12,27,22.50
2018,09,28,12,28,22.60
2018,09,28,12,29,22.60
2018,09,28,12,30,22.70
2018,09,28,12,31,22.70
2018,09,28,12,32,22.70
2018,09,28,12,33,22.60
2018,09,28,12,34,22.50
2018,09,28,12,35,22.40
2018,09,28,12,36,22.30
2018,09,28,12,37,22.20
2018,09,28,12,38,22.20
2018,09,28,12,39,22.20
2018,09,28,12,40,22.20
2018,09,28,12,41,22.20
2018,09,28,12,42,22.20
2018,09,28,12,43,22.20
2018,09,28,12,44,22.30
2018,09,28,12,45,22.30
2018,09,28,12,46,22.40
2018,09,28,12,47,22.30
2018,09,28,12,48,22.20
2018,09,28,12,49,22.10
2018,09,28,12,50,21.90
2018,09,28,12,51,21.80
2018,09,28,12,52,21.80
2018,09,28,12,53,21.80
2018,09,28,12,54,21.80
2018,09,28,12,55,21.80
2018,09,28,12,56,21.70
2018,09,28,12,57,21.70
2018,09,28,12,58,21.70
2018,09,28,12,59,21.60
2018,09,28,13,00,21.60
2018,09,28,13,01,21.60
2018,09,28,13,02,21.70
2018,09,28,13,03,21.70
2018,09,28,13,04,21.70
2018,09,28,13,05,21.80
2018,09,28,13,06,21.80
2018,09,28,13,07,21.70
2018,09,28,13,08,21.60
2018,09,28,13,09,21.40
2018,09,28,13,10,21.40
2018,09,28,13,11,21.40
2018,09,28,13,12,21.40
2018,09,28,13,13,21.30
2018,09,28,13,14,21.30
2018,09,28,13,15,21.20
2018,09,28,13,16,21.20
2018,09,28,13,17,21.20
2018,09,28,13,18,21.20
2018,09,28,13,19,21.20
2018,09,28,13,20,21.20
2018,09,28,13,21,21.10
2018,09,28,13,22,21.10
2018,09,28,13,23,21.10
2018,09,28,13,24,21.20
2018,09,28,13,25,21.30
2018,09,28,13,26,21.40
2018,09,28,13,27,21.50
2018,09,28,13,28,21.50
2018,09,28,13,29,21.60
2018,09,28,13,30,21.50
2018,09,28,13,31,21.60
2018,09,28,13,32,21.70
2018,09,28,13,33,21.70
2018,09,28,13,34,21.70
2018,09,28,13,35,21.80
2018,09,28,13,36,21.80
2018,09,28,13,37,21.80
2018,09,28,13,38,21.80
2018,09,28,13,39,21.80
2018,09,28,13,40,21.80
2018,09,28,13,41,21.70
2018,09,28,13,42,21.70
2018,09,28,13,43,21.70
2018,09,28,13,44,21.80
2018,09,28,13,45,21.80
2018,09,28,13,46,21.90
2018,09,28,13,47,21.90
2018,09,28,13,48,21.90
2018,09,28,13,49,21.90
2018,09,28,13,50,22.00
2018,09,28,13,51,22.00
2018,09,28,13,52,22.00
2018,09,28,13,53,22.10
2018,09,28,13,54,22.20
2018,09,28,13,55,22.20
2018,09,28,13,56,22.20
2018,09,28,13,57,22.20
2018,09,28,13,58,22.20
2018,09,28,13,59,22.10
2018,09,28,14,00,22.10
2018,09,28,14,01,22.00
2018,09,28,14,02,21.90
2018,09,28,14,03,21.80
2018,09,28,14,04,21.80
2018,09,28,14,05,21.80
2018,09,28,14,06,21.80
2018,09,28,14,07,21.80
2018,09,28,14,08,21.80
2018,09,28,14,09,21.80
2018,09,28,14,10,21.80
2018,09,28,14,11,21.80
2018,09,28,14,12,21.90
2018,09,28,14,13,21.90
2018,09,28,14,14,22.00
2018,09,28,14,15,22.00
2018,09,28,14,16,22.10
2018,09,28,14,17,22.10
2018,09,28,14,18,22.20
2018,09,28,14,19,22.20
2018,09,28,14,20,22.20
2018,09,28,14,21,22.20
2018,09,28,14,22,22.20
2018,09,28,14,23,22.20
2018,09,28,14,24,22.20
2018,09,28,14,25,22.30
2018,09,28,14,26,22.30
2018,09,28,14,27,22.40
2018,09,28,14,28,22.50
2018,09,28,14,29,22.50
2018,09,28,14,30,22.60
2018,09,28,14,31,22.70
2018,09,28,14,32,22.80
2018,09,28,14,33,22.80
2018,09,28,14,34,22.80
2018,09,28,14,35,22.90
2018,09,28,14,36,23.00
2018,09,28,14,37,23.10
2018,09,28,14,38,23.10
2018,09,28,14,39,23.20
2018,09,28,14,40,23.20
2018,09,28,14,41,23.20
2018,09,28,14,42,23.20
2018,09,28,14,43,23.20
2018,09,28,14,44,23.20
2018,09,28,14,45,23.20
2018,09,28,14,46,23.20
2018,09,28,14,47,23.20
2018,09,28,14,48,23.20
2018,09,28,14,49,23.10
2018,09,28,14,50,23.10
2018,09,28,14,51,23.00
2018,09,28,14,52,23.00
2018,09,28,14,53,23.00
2018,09,28,14,54,23.00
2018,09,28,14,55,23.00
2018,09,28,14,56,23.00
2018,09,28,14,57,23.00
2018,09,28,14,58,23.00
2018,09,28,14,59,23.00
2018,09,28,15,00,23.00
2018,09,28,15,01,23.00
2018,09,28,15,02,23.00
2018,09,28,15,03,22.90
2018,09,28,15,04,22.90
2018,09,28,15,05,22.90
2018,09,28,15,06,22.80
2018,09,28,15,07,22.80
2018,09,28,15,08,22.70
2018,09,28,15,09,22.70
2018,09,28,15,10,22.70
2018,09,28,15,11,22.70
2018,09,28,15,12,22.60
2018,09,28,15,13,22.60
2018,09,28,15,14,22.70
2018,09,28,15,15,22.70
2018,09,28,15,16,22.80
2018,09,28,15,17,22.80
2018,09,28,15,18,22.90
2018,09,28,15,19,22.90
2018,09,28,15,20,22.90
2018,09,28,15,21,23.00
2018,09,28,15,22,23.00
2018,09,28,15,23,23.10
2018,09,28,15,24,23.10
2018,09,28,15,25,23.10
2018,09,28,15,26,23.20
2018,09,28,15,27,23.20
2018,09,28,15,28,23.10
2018,09,28,15,29,23.10
2018,09,28,15,30,23.00
2018,09,28,15,31,23.00
2018,09,28,15,32,23.00
2018,09,28,15,33,22.90
2018,09,28,15,34,22.80
2018,09,28,15,35,22.80
2018,09,28,15,36,22.80
2018,09,28,15,37,22.80
2018,09,28,15,38,22.80
2018,09,28,15,39,22.90
2018,09,28,15,40,23.00
2018,09,28,15,41,23.00
2018,09,28,15,42,23.00
2018,09,28,15,43,22.90
2018,09,28,15,44,22.80
2018,09,28,15,45,22.80
2018,09,28,15,46,22.80
2018,09,28,15,47,22.80
2018,09,28,15,48,22.80
2018,09,28,15,49,22.90
2018,09,28,15,50,22.90
2018,09,28,15,51,23.00
2018,09,28,15,52,23.00
2018,09,28,15,53,23.00
2018,09,28,15,54,22.90
2018,09,28,15,55,22.90
2018,09,28,15,56,22.90
2018,09,28,15,57,22.90
2018,09,28,15,58,22.90
2018,09,28,15,59,22.90
2018,09,28,16,00,22.90
2018,09,28,16,01,23.00
2018,09,28,16,02,23.00
2018,09,28,16,03,23.00
2018,09,28,16,04,23.10
2018,09,28,16,05,23.00
2018,09,28,16,06,23.00
2018,09,28,16,07,22.90
2018,09,28,16,08,22.90
2018,09,28,16,09,22.90
2018,09,28,16,10,22.90
2018,09,28,16,11,22.90
2018,09,28,16,12,22.90
2018,09,28,16,13,22.80
2018,09,28,16,14,22.70
2018,09,28,16,15,22.70
2018,09,28,16,16,22.60
2018,09,28,16,17,22.60
2018,09,28,16,18,22.60
2018,09,28,16,19,22.60
2018,09,28,16,20,22.60
2018,09,28,16,21,22.60
2018,09,28,16,22,22.60
2018,09,28,16,23,22.60
2018,09,28,16,24,22.60
2018,09,28,16,25,22.60
2018,09,28,16,26,22.60
2018,09,28,16,27,22.60
2018,09,28,16,28,22.60
2018,09,28,16,29,22.60
2018,09,28,16,30,22.60
2018,09,28,16,31,22.60
2018,09,28,16,32,22.60
2018,09,28,16,33,22.70
2018,09,28,16,34,22.70
2018,09,28,16,35,22.70
2018,09,28,16,36,22.70
2018,09,28,16,37,22.70
2018,09,28,16,38,22.70
2018,09,28,16,39,22.60
2018,09,28,16,40,22.60
2018,09,28,16,41,22.50
2018,09,28,16,42,22.50
2018,09,28,16,43,22.50
2018,09,28,16,44,22.40
2018,09,28,16,45,22.30
2018,09,28,16,46,22.20
2018,09,28,16,47,22.10
2018,09,28,16,48,22.00
2018,09,28,16,49,21.90
2018,09,28,16,50,21.90
2018,09,28,16,51,22.00
2018,09,28,16,52,22.00
2018,09,28,16,53,22.00
2018,09,28,16,54,22.10
2018,09,28,16,55,22.10
2018,09,28,16,56,22.10
2018,09,28,16,57,22.10
2018,09,28,16,58,22.20
2018,09,28,16,59,22.20
2018,09,28,17,00,22.30
2018,09,28,17,01,22.30
2018,09,28,17,02,22.30
2018,09,28,17,03,22.30
2018,09,28,17,04,22.30
2018,09,28,17,05,22.40
2018,09,28,17,06,22.40
2018,09,28,17,07,22.50
2018,09,28,17,08,22.60
2018,09,28,17,09,22.60
2018,09,28,17,10,22.60
2018,09,28,17,11,22.60
2018,09,28,17,12,22.60
2018,09,28,17,13,22.50
2018,09,28,17,14,22.40
2018,09,28,17,15,22.30
2018,09,28,17,16,22.30
2018,09,28,17,17,22.30
2018,09,28,17,18,22.40
2018,09,28,17,19,22.40